[[{"header":{"parameterUnit":"m.s-1","parameterCategory":1,"la1":30.2991,"la2":30.254,"lo1":-89.0895,"lo2":-89.0444,"dy":0.0017,"dx":0.0017,"nx":28,"ny":28,"refTime":"2024-03-21T03:00:00:Z","depth":0,"parameterNumber":2,"parameterNumberName":"U-component_of_WINDS"},"data":[0,0,0,0,0,0,0,0,0,0,0,0,0,0,0,0,0,0,0,0,0,0,0,0,0,0,0,0,0,0,0,0,0,0,0,0,0,0,0,0,0,0,0,0,0,0,0,0,0,0,0,0,0,0,0,0,0,0,-2.8,-2.8001,0,-2.8009,-2.8009,-2.8009,-2.7925,-2.7923,-2.792,-2.7918,-2.7928,-2.7931,-2.7933,0,0,0,0,0,0,0,0,0,0,0,0,0,-2.7915,-2.7917,-2.8,-2.8001,-2.8001,-2.8009,-2.8009,-2.8009,-2.7925,-2.7922,-2.792,-2.7917,-2.7927,-2.793,-2.7933,0,0,0,0,0,0,0,0,0,0,0,0,0,-2.7941,-2.7918,-2.8,-2.796,-2.7956,-2.8009,-2.8009,-2.8009,-2.7926,-2.7922,-2.7919,-2.7916,-2.7926,-2.793,-2.7934,-2.8026,0,0,-2.7945,-2.7946,0,0,0,0,0,0,0,0,-2.794,-2.7944,-2.7966,-2.7963,-2.7959,-2.7962,-2.7982,-2.8015,-2.7927,-2.7938,-2.7918,-2.7914,-2.7942,-2.7945,-2.7954,-2.8026,-2.8027,-2.7945,-2.7947,-2.7949,-2.795,0,0,0,0,0,0,0,-2.7938,-2.7943,-2.8004,-2.7966,-2.7962,-2.7942,-2.7942,-2.7988,-2.7959,-2.7936,-2.793,-2.7932,-2.794,-2.795,-2.7953,-2.8027,-2.7945,-2.7948,-2.795,-2.7952,-2.8178,-2.8182,0,0,0,0,0,0,-2.7941,-2.7942,-2.8003,-2.8004,-2.794,-2.7947,-2.7946,-2.7965,-2.7959,-2.7954,-2.7935,-2.7928,-2.7946,-2.7949,-2.7953,-2.8062,-2.7949,-2.7952,-2.7954,-2.8174,-2.8179,-2.8183,0,0,0,0,0,0,-2.794,-2.7948,-2.8003,-2.7972,-2.7977,-2.7952,-2.7973,-2.7967,-2.7977,-2.7958,-2.7953,-2.7951,-2.7943,-2.7948,-2.8009,-2.8061,-2.7954,-2.7957,-2.817,-2.8176,-2.8181,-2.828,0,0,0,0,0,0,-2.7938,-2.7947,-2.7981,-2.7973,-2.7979,-2.8058,-2.7976,-2.7969,-2.7983,-2.7974,-2.7971,-2.7968,-2.7941,-2.8004,-2.8013,-2.8065,-2.796,-2.8165,-2.8173,-2.8179,-2.8272,-2.8289,-2.8303,0,0,0,0,0,-2.7935,-2.8009,-2.7983,-2.7991,-2.8021,-2.8061,-2.8064,-2.8032,-2.7988,-2.8022,-2.8011,-2.7968,-2.8055,-2.8011,-2.802,-2.8074,-2.8162,-2.817,-2.8179,-2.8265,-2.8286,-2.8303,0,0,0,0,0,0,-2.8023,-2.8007,-2.7978,-2.8051,-2.8058,-2.8046,-2.8089,-2.8054,-2.8074,-2.8064,-2.8024,-2.8024,-2.8092,-2.8089,-2.804,-2.8164,-2.8101,-2.8111,-2.8163,-2.8182,-2.8197,-2.8197,-2.7963,0,0,0,0,0,-2.8052,-2.8085,-2.8068,-2.8135,-2.814,-2.8114,-2.813,-2.8105,-2.811,-2.8113,-2.8105,-2.8113,-2.8142,-2.8162,-2.8188,-2.8272,-2.8271,-2.8314,-2.8329,-2.8342,-2.8352,-2.8398,-2.8417,-2.8211,-2.8211,-2.8211,0,0,-2.811,-2.8105,-2.8128,-2.8152,-2.8154,-2.8191,-2.8117,-2.8158,-2.8185,-2.8119,-2.8176,-2.8171,-2.8177,-2.8251,-2.8283,-2.825,-2.8409,-2.8353,-2.8363,-2.8366,-2.8409,-2.8428,-2.8446,-2.8217,-2.8216,-2.8215,0,0,-2.8234,-2.8233,-2.8289,-2.8293,-2.8298,-2.8281,-2.8295,-2.8289,-2.8283,-2.834,-2.8292,-2.8324,-2.8375,-2.8382,-2.8392,-2.8523,-2.8485,-2.8533,-2.8613,-2.8659,-2.8675,-2.8689,-2.8737,-2.8755,-2.8543,-2.8543,-2.8543,0,-2.8306,-2.8358,-2.8322,-2.8367,-2.838,-2.8323,-2.838,-2.8387,-2.84,-2.8411,-2.8374,-2.8438,-2.8438,-2.8514,-2.8546,-2.8556,-2.8571,-2.8533,-2.8675,-2.8689,-2.8702,-2.8747,-2.8765,-2.8549,-2.8548,-2.8548,-2.8547,0,-2.8446,-2.8484,-2.8529,-2.8543,-2.8561,-2.8612,-2.8586,-2.8609,-2.8583,-2.8571,-2.8631,-2.8629,-2.8654,-2.867,-2.8645,-2.8743,-2.8723,-2.8682,-2.8617,-2.8728,-2.877,-2.8787,-2.8557,-2.8555,-2.8553,-2.8552,0,0,-2.8624,-2.8621,-2.8638,-2.8645,-2.8647,-2.8676,-2.8726,-2.8751,-2.8772,-2.8784,-2.8826,-2.8871,-2.8834,-2.8846,-2.8821,-2.8862,-2.8968,-2.8815,-2.8815,-2.8844,-2.9078,-2.9109,-2.9129,-2.8943,-2.8946,-2.8948,-2.9077,0,-2.8746,-2.883,-2.8801,-2.8887,-2.8922,-2.887,-2.8913,-2.8921,-2.8911,-2.8941,-2.893,-2.8964,-2.8911,-2.8918,-2.8956,-2.8947,-2.9014,-2.8937,-2.8982,-2.8984,-2.8982,-2.9151,-2.9183,-2.9305,-2.9093,-2.9096,-2.9098,0,-2.8899,-2.8918,-2.9007,-2.9006,-2.902,-2.906,-2.9081,-2.911,-2.9118,-2.9109,-2.9124,-2.9091,-2.9142,-2.9078,-2.9148,-2.9096,-2.9114,-2.9112,-2.9116,-2.9119,-2.9048,-2.9159,-2.9343,-2.9361,-2.9123,-2.9121,-2.912,0,-2.9021,-2.9069,-2.9129,-2.9137,-2.9137,-2.9166,-2.9168,-2.9172,-2.919,-2.921,-2.9221,-2.9247,-2.9261,-2.9283,-2.9259,-2.9214,-2.9333,-2.9267,-2.9328,-2.9329,-2.9354,-2.9353,-2.9544,-2.9366,-2.9366,-2.9365,-2.9365,0,-2.916,-2.9217,-2.9184,-2.9221,-2.9285,-2.9252,-2.9316,-2.9312,-2.9317,-2.9354,-2.9311,-2.9346,-2.9313,-2.9346,-2.9328,-2.939,-2.9396,-2.9391,-2.9385,-2.9395,-2.9396,-2.9405,-2.9396,-2.937,-2.9369,-2.9368,-2.9367,0,-2.9307,-2.9287,-2.9349,-2.9345,-2.9345,-2.9392,-2.9389,-2.9424,-2.9413,-2.946,-2.9469,-2.9451,-2.9488,-2.9467,-2.9505,-2.9493,-2.9574,-2.9557,-2.9571,-2.9566,-2.9629,-2.9624,-2.9833,-2.9859,-2.9664,-2.9666,-2.9667,0,-2.9396,-2.9439,-2.944,-2.9462,-2.9466,-2.9501,-2.9519,-2.949,-2.9511,-2.9526,-2.956,-2.9593,-2.9618,-2.968,-2.9671,-2.97,-2.9684,-2.9755,-2.9688,-2.9697,-2.9686,-2.9684,-2.9689,-2.9769,-2.9771,-2.9773,-2.9774,0,-2.9558,-2.9547,-2.9575,-2.9601,-2.9624,-2.9643,-2.9658,-2.9678,-2.9649,-2.9676,-2.9713,-2.9733,-2.9772,-2.9806,-2.9832,-2.9835,-2.9801,-2.9796,-2.9812,-2.9822,-2.9828,-2.9827,-2.9608,-2.9791,-2.9789,-2.9788,-2.9787,-2.9787,-2.9679,-2.9716,-2.9723,-2.9756,-2.9765,-2.9781,-2.9814,-2.9808,-2.9838,-2.9868,-2.9849,-2.9894,-2.9904,-2.9935,-2.9943,-2.9979,-2.995,-2.9973,-2.9978,-2.9985,-2.9994,-2.9823,-2.9983,-2.9983,-2.9982,-2.9982,-2.9981,0,-2.984,-2.9842,-2.9874,-2.9897,-2.9924,-2.989,-2.9906,-2.9931,-2.997,-2.9982,-3.0009,-3.0053,-3.0087,-3.0082,-3.0113,-3.0143,-3.0128,-3.0152,-3.015,-3.0151,-3.0017,-3.0,-3.0164,-3.0164,-3.0164,-3.0164,-3.0164,-3.0164,-2.9926,-2.9987,-2.9977,-3.0043,-3.0045,-3.0088,-3.0101,-3.0116,-3.0126,-3.0177,-3.0205,-3.0202,-3.0208,-3.024,-3.0271,-3.0268,-3.0282,-3.0312,-3.0305,-3.0179,-3.0161,-3.0143,-3.0128,-3.0315,-3.0316,-3.0436,-3.0437,-3.0438]},{"header":{"parameterUnit":"m.s-1","parameterCategory":1,"la1":30.2991,"la2":30.254,"lo1":-89.0895,"lo2":-89.0444,"dy":0.0017,"dx":0.0017,"nx":28,"ny":28,"refTime":"2024-03-21T03:00:00:Z","depth":0,"parameterNumber":3,"parameterNumberName":"V-component_of_WINDS"},"data":[0,0,0,0,0,0,0,0,0,0,0,0,0,0,0,0,0,0,0,0,0,0,0,0,0,0,0,0,0,0,0,0,0,0,0,0,0,0,0,0,0,0,0,0,0,0,0,0,0,0,0,0,0,0,0,0,0,0,-3.4668,-3.4669,0,-3.4699,-3.4699,-3.47,-3.4581,-3.4577,-3.4573,-3.457,-3.46,-3.4604,-3.4608,0,0,0,0,0,0,0,0,0,0,0,0,0,-3.4504,-3.4508,-3.4668,-3.4669,-3.4669,-3.4699,-3.4699,-3.47,-3.4581,-3.4577,-3.4573,-3.4569,-3.4599,-3.4604,-3.4609,0,0,0,0,0,0,0,0,0,0,0,0,0,-3.456,-3.4509,-3.4668,-3.4614,-3.4609,-3.4699,-3.47,-3.47,-3.4582,-3.4577,-3.4571,-3.4566,-3.4597,-3.4603,-3.4609,-3.4753,0,0,-3.4628,-3.4631,0,0,0,0,0,0,0,0,-3.4557,-3.4566,-3.4621,-3.4618,-3.4613,-3.4631,-3.4652,-3.4718,-3.4583,-3.4592,-3.457,-3.4564,-3.4615,-3.4619,-3.4636,-3.4755,-3.4756,-3.4629,-3.4632,-3.4635,-3.4637,0,0,0,0,0,0,0,-3.4553,-3.4564,-3.468,-3.4622,-3.4617,-3.4587,-3.4589,-3.4664,-3.4633,-3.4591,-3.4582,-3.4588,-3.4611,-3.4631,-3.4636,-3.4756,-3.4628,-3.4634,-3.4638,-3.464,-3.4993,-3.4998,0,0,0,0,0,0,-3.4557,-3.4561,-3.4679,-3.4681,-3.4571,-3.4594,-3.4596,-3.463,-3.4632,-3.4627,-3.4592,-3.4582,-3.4623,-3.4629,-3.4637,-3.4805,-3.4635,-3.4641,-3.4644,-3.4987,-3.4994,-3.5,0,0,0,0,0,0,-3.4553,-3.4568,-3.4678,-3.4619,-3.4631,-3.4602,-3.4642,-3.4634,-3.4653,-3.4632,-3.4626,-3.4618,-3.4619,-3.4628,-3.4725,-3.4804,-3.4643,-3.4649,-3.4981,-3.499,-3.4997,-3.5143,0,0,0,0,0,0,-3.4549,-3.4568,-3.4623,-3.4621,-3.4634,-3.4767,-3.4646,-3.4638,-3.4664,-3.4651,-3.4655,-3.4651,-3.4615,-3.4717,-3.4731,-3.481,-3.4654,-3.4973,-3.4985,-3.4995,-3.5131,-3.5156,-3.5177,0,0,0,0,0,-3.4544,-3.4663,-3.4626,-3.4641,-3.4703,-3.4772,-3.478,-3.4737,-3.4671,-3.4726,-3.4712,-3.4651,-3.4793,-3.4727,-3.4743,-3.4825,-3.4968,-3.4981,-3.4994,-3.5121,-3.5151,-3.5176,0,0,0,0,0,0,-3.4675,-3.4662,-3.4621,-3.4743,-3.476,-3.4752,-3.482,-3.477,-3.4805,-3.4792,-3.4736,-3.4738,-3.4845,-3.4844,-3.4771,-3.4963,-3.4869,-3.4886,-3.4961,-3.4989,-3.5011,-3.501,-3.4659,0,0,0,0,0,-3.4718,-3.4776,-3.4761,-3.487,-3.488,-3.4849,-3.4878,-3.4843,-3.4858,-3.4864,-3.4858,-3.4874,-3.4922,-3.4955,-3.4998,-3.513,-3.5129,-3.5194,-3.5217,-3.5235,-3.5251,-3.532,-3.5349,-3.5043,-3.5042,-3.5042,0,0,-3.4807,-3.4807,-3.4847,-3.4896,-3.4905,-3.4966,-3.4856,-3.4925,-3.4969,-3.4874,-3.4966,-3.4962,-3.4976,-3.5091,-3.5141,-3.5093,-3.5335,-3.5252,-3.5267,-3.5272,-3.5336,-3.5365,-3.5391,-3.5051,-3.505,-3.5048,0,0,-3.5002,-3.5008,-3.5099,-3.511,-3.5125,-3.5103,-3.5125,-3.5124,-3.5118,-3.5209,-3.5139,-3.519,-3.5274,-3.5287,-3.5305,-3.5503,-3.5448,-3.5518,-3.5638,-3.5706,-3.573,-3.5751,-3.5822,-3.5848,-3.5533,-3.5534,-3.5534,0,-3.5111,-3.5201,-3.5152,-3.5226,-3.5249,-3.5166,-3.5258,-3.527,-3.5299,-3.5316,-3.5262,-3.5366,-3.5369,-3.5486,-3.5535,-3.5551,-3.5575,-3.5519,-3.5731,-3.5751,-3.577,-3.5837,-3.5864,-3.5542,-3.5541,-3.554,-3.554,0,-3.5335,-3.5398,-3.5469,-3.5499,-3.553,-3.5613,-3.5576,-3.5613,-3.5575,-3.5559,-3.5652,-3.5653,-3.5695,-3.572,-3.5684,-3.5832,-3.5801,-3.574,-3.5644,-3.5809,-3.5871,-3.5896,-3.5555,-3.5552,-3.5549,-3.5547,0,0,-3.5614,-3.5615,-3.5642,-3.5655,-3.5664,-3.5711,-3.5789,-3.583,-3.5863,-3.5885,-3.5949,-3.6021,-3.5964,-3.5984,-3.5949,-3.6008,-3.6165,-3.5939,-3.5938,-3.5982,-3.6328,-3.6376,-3.6407,-3.6128,-3.6133,-3.6136,-3.6328,0,-3.5806,-3.594,-3.5898,-3.6034,-3.6091,-3.6012,-3.6079,-3.6092,-3.6079,-3.6124,-3.6108,-3.6161,-3.6082,-3.6093,-3.6149,-3.6135,-3.6234,-3.612,-3.6187,-3.619,-3.6188,-3.6439,-3.6489,-3.667,-3.6351,-3.6356,-3.6358,0,-3.6048,-3.6079,-3.6221,-3.622,-3.6242,-3.6304,-3.6338,-3.6383,-3.6395,-3.6381,-3.6403,-3.6354,-3.643,-3.6333,-3.6436,-3.6359,-3.6384,-3.6381,-3.6387,-3.6393,-3.6286,-3.6453,-3.6726,-3.6754,-3.6396,-3.6393,-3.639,0,-3.6238,-3.6316,-3.641,-3.6423,-3.6424,-3.647,-3.6472,-3.6479,-3.6506,-3.6535,-3.6552,-3.659,-3.6611,-3.6641,-3.6603,-3.6536,-3.6712,-3.6612,-3.6702,-3.6704,-3.6744,-3.6743,-3.7028,-3.6758,-3.6758,-3.6757,-3.6757,0,-3.6457,-3.6548,-3.6496,-3.6555,-3.6653,-3.6602,-3.6701,-3.6694,-3.67,-3.6756,-3.6688,-3.6741,-3.6688,-3.6736,-3.6706,-3.6797,-3.6806,-3.6797,-3.6788,-3.6804,-3.6805,-3.682,-3.6807,-3.6764,-3.6763,-3.6762,-3.676,0,-3.6688,-3.6657,-3.6756,-3.6748,-3.6748,-3.6821,-3.6814,-3.6867,-3.6848,-3.6919,-3.6932,-3.6902,-3.6955,-3.692,-3.6973,-3.6953,-3.7071,-3.7044,-3.7068,-3.7061,-3.7154,-3.7147,-3.746,-3.7499,-3.7204,-3.7206,-3.7209,0,-3.6831,-3.6898,-3.6898,-3.693,-3.6937,-3.699,-3.7018,-3.697,-3.7001,-3.7019,-3.7071,-3.7117,-3.7153,-3.724,-3.7223,-3.7263,-3.7237,-3.7344,-3.7243,-3.7257,-3.724,-3.7238,-3.7244,-3.7365,-3.7369,-3.7372,-3.7374,0,-3.7088,-3.7069,-3.7111,-3.7149,-3.7184,-3.721,-3.7232,-3.7262,-3.7213,-3.7252,-3.7305,-3.7332,-3.7386,-3.7434,-3.7467,-3.7467,-3.7414,-3.7406,-3.7429,-3.7447,-3.7458,-3.7454,-3.7125,-3.7399,-3.7397,-3.7395,-3.7394,-3.7393,-3.7279,-3.7336,-3.7344,-3.7394,-3.7404,-3.7426,-3.7476,-3.7462,-3.7506,-3.7547,-3.7515,-3.7579,-3.7588,-3.7626,-3.7634,-3.7683,-3.7639,-3.7673,-3.7681,-3.7691,-3.7705,-3.7449,-3.7688,-3.7687,-3.7687,-3.7686,-3.7686,0,-3.7534,-3.7535,-3.7581,-3.7613,-3.7652,-3.7596,-3.7617,-3.7653,-3.771,-3.7723,-3.7759,-3.782,-3.7865,-3.7851,-3.7891,-3.7933,-3.7909,-3.7945,-3.7942,-3.7944,-3.7741,-3.7717,-3.7964,-3.7964,-3.7964,-3.7964,-3.7964,-3.7964,-3.7671,-3.7763,-3.7745,-3.7842,-3.7842,-3.7904,-3.7921,-3.794,-3.795,-3.8021,-3.8059,-3.8049,-3.8051,-3.8091,-3.813,-3.8124,-3.8143,-3.8188,-3.8174,-3.7985,-3.7958,-3.7932,-3.7909,-3.8192,-3.8193,-3.8373,-3.8375,-3.8376]}]]